Regional Weather Roundup
Issued by NWS Upton, NY

Current Version | Previous Version | Text Only | Print | Product List | Glossary On
Versions: 1 2 3 4 5 6 7 8 9 10 11 12 13 14 15 16 17 18 19 20 21 22 23 24 25 26 27 28 29 30 31 32 33 34 35 36 37 38 39 40 41 42 43 44 45 46 47 48 49 50
000 ASUS41 KOKX 030805 RWROKX REGIONAL WEATHER ROUNDUP NATIONAL WEATHER SERVICE NEW YORK NY 300 AM EST TUE MAR 03 2015 NOTE: "FAIR" INDICATES FEW OR NO CLOUDS BELOW 12,000 FEET WITH NO SIGNIFICANT WEATHER AND/OR OBSTRUCTIONS TO VISIBILITY. NYZ071-072-176-178-NJZ106-104-030900- NEW YORK CITY METRO AREA CITY SKY/WX TMP DP RH WIND PRES REMARKS CENTRAL PARK CLEAR 25 8 48 CALM 30.40F LAGUARDIA APRT CLEAR 26 11 52 NW9 30.38F WCI 17 KENNEDY INTL CLEAR 24 9 52 NW10 30.39F WCI 14 NEWARK/LIBERTY PTCLDY 23 10 57 W3 30.40S BRNX BOT. GARD N/A N/A N/A N/A NW2 30.38F TETERBORO CLEAR 21 8 57 CALM 30.38F $$ NYZ177-179-078>081-030900- LONG ISLAND NEW YORK CITY SKY/WX TMP DP RH WIND PRES REMARKS FARMINGDALE CLEAR 21 9 59 W5 30.38S WCI 15 ISLIP NOT AVBL SHIRLEY CLEAR 18 7 62 CALM 30.38R WESTHAMPTON CLEAR 23 7 50 NW7 30.38S WCI 15 MONTAUK POINT NOT AVBL $$ NYZ052-065-067-030900- HUDSON VALLEY CITY SKY/WX TMP DP RH WIND PRES REMARKS WHITE PLAINS CLEAR 14 5 67 CALM 30.34F NEWBURGH CLEAR 7 1 78 CALM 30.35F MONTGOMERY CLEAR 10 2 69 S3 30.34F POUGHKEEPSIE CLEAR 10 3 73 CALM 30.36F ALBANY CLEAR 16 4 59 W13 30.36S WCI 2 $$ NJZ001-105-106-008-010-013-015-019>022-104-030900- NEW JERSEY CITY SKY/WX TMP DP RH WIND PRES REMARKS NEWARK/LIBERTY PTCLDY 23 10 57 W3 30.40S TETERBORO CLEAR 21 8 57 CALM 30.38F CALDWELL CLEAR 17 6 62 CALM 30.39F MORRISTOWN CLEAR 16 7 67 CALM 30.39S SOMERVILLE CLEAR 20 7 57 NW6 30.38F WCI 12 SUSSEX CLEAR 13 4 67 CALM 30.37S ANDOVER N/A 12 5 73 CALM 30.37S TRENTON CLEAR 24 8 50 NW6 30.39F WCI 17 MILLVILLE CLEAR 27 17 66 NW6 30.39F WCI 20 ATLANTIC CITY CLEAR 22 15 75 NW6 30.40F WCI 14 WRIGHTSTOWN CLEAR 22 11 62 N5 30.38S WCI 15 TOMS RIVER CLEAR 21 10 63 CALM 30.40S BELMAR CLEAR 25 9 50 NW8 30.38F WCI 16 $$ PAZ047>061-062-071-030900- EASTERN PENNSYLVANIA CITY SKY/WX TMP DP RH WIND PRES REMARKS PHILADELPHIA PTCLDY 27 9 46 N12 30.43S WCI 17 ALLENTOWN CLEAR 17 6 62 NW5 30.40S WCI 10 SCRANTON CLEAR 15 6 67 CALM 30.35S $$ CTZ002-004>006-009-010-012-RIZ004-006-007-MAZ004-011-015-030900- SOUTHERN NEW ENGLAND IN CT CITY SKY/WX TMP DP RH WIND PRES REMARKS BRADLEY INTL CLEAR 20 6 55 NW8 30.33S WCI 10 HARTFORD CLEAR 21 7 54 W5 30.36S WCI 15 DANBURY CLEAR 8 1 73 CALM 30.35F WTRBRY/OXFORD CLEAR 18 1 49 N3 30.32F BRIDGEPORT CLEAR 13 6 74 NW5 30.38S WCI 5 MERIDEN CLEAR 18 6 59 W5 30.37S WCI 11 NEW HAVEN CLEAR 24 8 50 NW5 30.37S WCI 18 CHESTER FAIR 23 10 58 NW5 30.33F WCI 17 GROTON CLEAR 19 8 62 NW9 30.35S WCI 8 WILLIMANTIC CLEAR 19 6 57 W5 30.34R WCI 12 IN RI CITY SKY/WX TMP DP RH WIND PRES REMARKS PROVIDENCE CLEAR 19 6 57 W6 30.33R WCI 11 BLOCK ISLAND CLEAR 25 9 50 NW10G18 30.31S WCI 15 WESTERLY CLEAR 21 8 57 W5 30.35R WCI 15 IN MA CITY SKY/WX TMP DP RH WIND PRES REMARKS BOSTON CLEAR 23 4 44 W9 30.31S WCI 13 WORCESTER CLEAR 16 5 62 NW5 30.25R WCI 9 WESTFIELD CLEAR 19 5 54 W5 30.32S WCI 12 PROVINCETOWN CLEAR 25 7 46 NW25G31 30.28S WCI 9 NANTUCKET CLEAR 26 12 55 NW13 30.29R WCI 15 $$ ANZ330-335-338-340-345-350-353-355-030900- COASTAL MARINE OBSERVATIONS STATION/POSITION TIME SKY/WX TEMP WIND PRES VSBY WAVE AIR SEA DIR/SP/G HT/PER (UTC) (F) (DEG/KT/KT) (MB) (MI) (FT/S) NY HARB ENTRANCE 0800 29 38 340/ 12/ 16 1028.8 2/ 4 4S FIRE IS NOT AVBL 20S FIRE ISLAND 0700 36 1029.2 3/ 5 23SW MTP 0800 N/A 4/ 4 HUDSON CANYON NOT AVBL EXECUTION ROCKS NOT AVBL WESTERN LI SOUND NOT AVBL CENTRAL LI SOUND NOT AVBL EASTERN LI SOUND NOT AVBL ROBBINS REEF 0800 26 310/ 9/ 10 1027.9 $$ >>>>>>>>>>>>>>>>>>>>>>>>>>>> KEY <<<<<<<<<<<<<<<<<<<<<<<<<<< > < > SKY/WX - SKY CONDITION/PRESENT WEATHER < > TMP - TEMPERATURE IN FAHRENHEIT < > DP - DEWPOINT IN FAHRENHEIT < > RH - RELATIVE HUMIDITY IN PERCENT < > WIND - DIRECTION AND SPEED IN MPH < > PRES - MEAN SEA LEVEL PRESSURE IN INCHES OF HG < > WCI - WIND CHILL INDEX < > VSB - VISIBILITY IN MILES < > HX - HEAT INDEX < > TC - TEMPERATURE IN CELSIUS < > VRB - VARIABLE WIND DIRECTION < > < >>>>>>>>>>>>>>>>>>>>>>>>>>>> KEY <<<<<<<<<<<<<<<<<<<<<<<<<<<

USA.gov is the U.S. government's official web portal to all federal, state and local government web resources and services.